Regional Weather Roundup
Issued by NWS Midland/Odessa, TX

Skip options and go directly to product.
Home | Oldest Version | Previous Version | Current Version | All | Text Only | Save Text | Print | Product List | Glossary On

Skip product version selection by date and time.   
817
ASUS44 KMAF 110610
RWRMAF
MIDLAND AREA WEATHER ROUNDUP
NATIONAL WEATHER SERVICE MIDLAND TX
1200 AM CST THU FEB 11 2016

...IN SOUTHWEST TEXAS AND SOUTHEAST NEW MEXICO...

CITY           SKY/WX    TMP DP  RH WIND       PRES   REMARKS
ALPINE         CLEAR     47  14  26 SW9       30.31F
ANDREWS        FAIR      52  20  29 SW10      30.16S
ARTESIA        CLEAR     48  18  29 W15       30.16R
BIG SPRING     CLEAR     50  21  32 S12       30.16F
CARLSBAD       CLEAR     54  19  25 W14       30.13F
DRYDEN           N/A     50  23  34 NW7       30.17F
FORT STOCKTON  CLEAR     52  19  27 SW15      30.18F
GUAD PASS      CLEAR     50  13  22 SW14      30.27S
HOBBS          CLOUDY    39  16  38 S13       30.17F WCI  32
MARFA          CLOUDY    30  13  49 NW5       30.29F WCI  25
MIDLAND AIRPK  CLEAR     58  21  23 S12G18    30.15F
MIDLAND INTL   CLEAR     55  22  27 S14       30.15F
ODESSA         CLEAR     55  20  25 S14       30.16F
PECOS          CLEAR     39  20  46 SW7       30.16F WCI  34
PRESIDIO       FAIR      53  15  22 N13       30.21S
SEMINOLE       CLEAR     47  20  33 W9        30.16S
SNYDER           N/A     48  22  35 S9        30.12F
WINK           CLOUDY    50  22  33 SW7       30.15S
$$
...OTHER STATIONS IN TEXAS...

CITY           SKY/WX    TMP DP  RH WIND       PRES   REMARKS
ABILENE        CLEAR     54  25  32 SW9       30.10F
AMARILLO       CLEAR     41  17  38 SW7       30.07S WCI  36
AUSTIN         CLEAR     52  34  50 S10       30.17F
BROWNSVILLE    CLEAR     57  53  86 S10       30.29F
CORPUS CHRISTI CLEAR     51  42  71 S9        30.24S
DALLAS FTW     PTCLDY    50  34  54 SW9       30.02F
DEL RIO        CLEAR     54  27  35 E6        30.19S
EL PASO        PTCLDY    51  17  26 S6        30.22F
HOUSTON INT    CLEAR     57  47  69 SW6       30.20F
LUBBOCK        CLEAR     45  18  34 W9        30.10F
SAN ANGELO     CLEAR     50  25  37 SW7       30.14F
SAN ANTONIO    CLEAR     57  38  48 S7        30.20F
WACO           CLEAR     56  34  43 SW14      30.10S
WICHITA FALLS  NOT AVBL
$$
...OTHER LOCATIONS IN NEW MEXICO...

CITY           SKY/WX    TMP DP  RH WIND       PRES   REMARKS
ALAMAGORDO     CLOUDY    41  12  30 E3        30.25R
ALBUQUERQUE    CLOUDY    49  21  33 N5        30.32R
CANNON AFB     CLEAR     43  15  32 W13       30.12F WCI  37
CLOVIS         CLEAR     46  18  31 W15       30.12S
HOLLOMAN AFB   CLOUDY    38  13  36 E6        30.23S WCI  33
ROSWELL        CLOUDY    45  18  34 VRB3      30.15S
RUIDOSO          N/A     43  12  28 W9        30.32S WCI  37
SANTA FE       CLOUDY    37  17  44 NE5       30.31R WCI  33
TRUTH OR CONSE PTCLDY    43  15  32 NW7       30.26S WCI  39
TUCUMCARI      CLEAR     46  18  32 W17       30.09R WCI  39
$$

USA.gov is the U.S. government's official web portal to all federal, state and local government web resources and services.